Location: Cheching
(60.0667°N, 164.2167°W)
Time: 22:04:46
(UTC+00:00)

XW-2D - Pass Details

Date: 23 January 2021
Orbit: 505 x 525 km, 97.5° (Epoch: 07 March)

Event Time Altitude Azimuth Distance (km) Brightness Sun altitude
Rises 03:44:37 0° 166° (SSE) 2,624 ? -6.8°
Reaches altitude 10° 03:46:42 10° 168° (SSE) 1,745 ? -7.1°
Maximum altitude 03:50:28 77° 255° (WSW) 541 ? -7.5°
Drops below altitude 10° 03:54:18 10° 342° (NNW) 1,771 ? -7.9°
Sets 03:56:25 0° 344° (NNW) 2,668 ? -8.2°
